Location: Daytona Beach
(29.2106°N, 81.0231°W)
Time: 23:30:07
(UTC-04:00)

ISS - Pass Details

Date: 28 June 2021
Orbit: 419 x 421 km, 51.6° (Epoch: 03 August)

Event Time Altitude Azimuth Distance (km) Brightness Sun altitude
Exits shadow 03:40:03 17° 56° (ENE) 1,132 -0.9 -28.6°
Drops below altitude 10° 03:40:59 10° 52° (NE) 1,496 -0.1 -28.5°
Sets 03:43:06 0° 48° (NE) 2,362 1.2 -28.2°
